Home   Weather   Dortmund   Past weeks

Flag for Germany Past Weather in Dortmund, North Rhine-Westphalia, Germany — Yesterday and Last 2 Weeks

Now
63 °F

Passing clouds.


Feels Like: 63 °F
Forecast: 56 / 69 °F
Wind: 8 mph from Southwest

Location: Dortmund / Wickede

Current Time: Jun 25, 2017 at 10:54:03 pm

Latest Report: Jun 25, 2017 at 9:50 pm


Visibility: N/A

Pressure: 29.86 "Hg

Humidity: 68%

Dew Point: 52 °F

Location of DortmundLocation

Past Weather in Dortmund — Graph

°F

Dortmund Temperature Yesterday

Maximum temperature yesterday: 68 °F (at 11:20 am)
Minimum temperature yesterday: 57 °F (at 5:20 am)
Average temperature yesterday: 63 °F

High & Low Weather Summary for the Past Weeks

 TemperatureHumidityPressure
High91 °F (Jun 22, 1:20 pm)94% (Jun 25, 5:20 am)30.30 "Hg (Jun 25, 5:20 am)
Low48 °F (Jun 14, 5:20 am)27% (Jun 19, 2:50 pm)29.71 "Hg (Jun 22, 6:50 pm)
Average68 °F58%30.04 "Hg
* Reported Jun 10 9:20 pm — Jun 25 9:20 pm, Dortmund. Weather by CustomWeather, © 2017

Note: Actual official high and low records may vary slightly from our data, if they occured in-between our weather recording intervals... More about our weather records

Advertising

Dortmund Weather History for the Previous 24 Hours

Scroll right to see more
 ConditionsComfort  
Time TempWeatherWind HumidityBarometerVisibility
9:20 pm
Sun, Jun 25
64 °FPartly sunny.7 mph64%29.86 "HgN/A
8:50 pm64 °FSunny.8 mph64%29.86 "Hg10 mi
8:20 pm64 °FScattered clouds.8 mph64%29.86 "HgN/A
7:50 pm66 °FSunny.10 mph60%29.86 "Hg10 mi
7:20 pm66 °FSunny.12 mph64%29.89 "Hg10 mi
6:50 pm68 °FSunny.12 mph60%29.89 "Hg10 mi
6:20 pm66 °FPartly sunny.15 mph60%29.89 "HgN/A
5:50 pm66 °FBroken clouds.10 mph64%29.89 "HgN/A
5:20 pm64 °FPartly sunny.13 mph64%29.89 "HgN/A
4:50 pm64 °FPartly sunny.10 mph64%29.89 "HgN/A
4:20 pm64 °FPartly sunny.12 mph64%29.89 "HgN/A
3:20 pm66 °FScattered showers. Partly sunny.15 mph60%29.89 "HgN/A
2:50 pm66 °FPartly sunny.10 mph64%29.89 "HgN/A
2:20 pm64 °FPartly sunny.9 mph73%29.89 "HgN/A
1:50 pm64 °FPartly sunny.10 mph73%29.89 "HgN/A
1:20 pm68 °FBroken clouds.9 mph69%29.86 "HgN/A
12:50 pm61 °FPartly sunny.14 mph77%29.89 "HgN/A
12:20 pm61 °FSprinkles. Scattered clouds.17 mph77%29.86 "Hg6 mi
11:50 am66 °FScattered clouds.16 mph68%29.86 "HgN/A
11:20 am66 °FPassing clouds.13 mph73%29.86 "HgN/A
10:50 am63 °FPartly sunny.15 mph77%29.86 "HgN/A
10:20 am63 °FPartly sunny.14 mph77%29.86 "HgN/A
9:50 am63 °FPartly sunny.13 mph77%29.83 "HgN/A
9:20 am61 °FPartly sunny.15 mph83%29.83 "HgN/A
8:50 am61 °FPartly sunny.13 mph83%29.83 "HgN/A
8:20 am61 °FPartly sunny.12 mph88%29.83 "HgN/A
7:50 am61 °FDrizzle. Fog.15 mph88%29.83 "Hg2 mi
7:20 am61 °FDrizzle. Partly sunny.14 mph83%29.86 "Hg5 mi
6:50 am59 °FDrizzle. Partly sunny.14 mph94%29.86 "Hg6 mi
6:20 am59 °FDrizzle. Partly sunny.14 mph94%29.86 "Hg4 mi
5:50 am59 °FDrizzle. Fog.12 mph94%29.86 "Hg1 mi
5:20 am59 °FDrizzle. Fog.13 mph94%29.86 "Hg2 mi
Weather by CustomWeather, © 2017

See weather overviewHow to use our weather pages